N577BF KBKV-KRZT

Flight info

Callsign N577BF
Flight time 3h 14m
Altitude 19000
Route DCT DOFFY Q65 ENEME/N0272F210 Q75 FISHO Q93 QUIWE/N0271F220 Q93 TONIO/N0271F230 Q67 JONEN/N0273F220
Aircraft PC12/L-VGD/C

Departure

Time 2026-04-20 22:04
Airport Brooksville–Tampa Bay Regional Airport (KBKV)

Arrival

Time 2026-04-21 01:19
Airport Ross County Airport (KRZT)
Time Latitude Longitude Altitude Speed Heading
2026-04-20 21:39 28.47049 -82.44776 66 ft 0 kts 28°
2026-04-20 21:57 28.47054 -82.44776 66 ft 1 kts 344°
2026-04-20 21:57 28.47050 -82.44799 66 ft 4 kts 269°
2026-04-20 21:57 28.47060 -82.44824 66 ft 5 kts 299°
2026-04-20 21:58 28.47051 -82.44850 66 ft 5 kts 206°
2026-04-20 21:58 28.46996 -82.44879 66 ft 11 kts 205°
2026-04-20 21:58 28.46916 -82.44924 67 ft 14 kts 206°
2026-04-20 21:58 28.46871 -82.44949 66 ft 15 kts 207°
2026-04-20 21:59 28.46766 -82.45007 65 ft 18 kts 207°
2026-04-20 21:59 28.46645 -82.45074 63 ft 20 kts 204°
2026-04-20 21:59 28.46520 -82.45143 63 ft 19 kts 206°
2026-04-20 21:59 28.46425 -82.45197 63 ft 8 kts 206°
2026-04-20 22:00 28.46407 -82.45207 63 ft 0 kts 209°
2026-04-20 22:01 28.46406 -82.45208 63 ft 1 kts 210°
2026-04-20 22:01 28.46396 -82.45222 63 ft 1 kts 271°
2026-04-20 22:02 28.46406 -82.45255 63 ft 7 kts 298°
2026-04-20 22:02 28.46428 -82.45277 63 ft 1 kts 25°
2026-04-20 22:02 28.46430 -82.45276 63 ft 0 kts 25°
2026-04-20 22:03 28.46441 -82.45270 63 ft 18 kts 26°
2026-04-20 22:03 28.46821 -82.45058 67 ft 93 kts 25°
2026-04-20 22:04 28.47409 -82.44739 488 ft 91 kts 28°
2026-04-20 22:04 28.47959 -82.44456 927 ft 88 kts 27°
2026-04-20 22:04 28.48585 -82.44152 1257 ft 109 kts 26°
2026-04-20 22:04 28.49362 -82.43961 1712 ft 121 kts
2026-04-20 22:05 28.50185 -82.44205 2147 ft 130 kts 344°
2026-04-20 22:05 28.51014 -82.44648 2571 ft 133 kts 341°
2026-04-20 22:05 28.51838 -82.45106 2992 ft 135 kts 341°
2026-04-20 22:05 28.52703 -82.45566 3377 ft 139 kts 342°
2026-04-20 22:06 28.53586 -82.45994 3821 ft 136 kts 347°
2026-04-20 22:06 28.54471 -82.46244 4285 ft 130 kts 355°
2026-04-20 22:06 28.55363 -82.46365 4667 ft 132 kts 359°
2026-04-20 22:06 28.56277 -82.46439 5086 ft 131 kts 359°
2026-04-20 22:07 28.57196 -82.46511 5482 ft 133 kts 359°
2026-04-20 22:07 28.58127 -82.46589 5881 ft 138 kts 358°
2026-04-20 22:07 28.59096 -82.46672 6295 ft 142 kts 357°
2026-04-20 22:07 28.60086 -82.46759 6753 ft 141 kts 356°
2026-04-20 22:08 28.61052 -82.46846 7191 ft 140 kts 356°
2026-04-20 22:08 28.62030 -82.46934 7575 ft 142 kts 356°
2026-04-20 22:08 28.63019 -82.47023 8027 ft 143 kts 355°
2026-04-20 22:08 28.64000 -82.47112 8529 ft 142 kts 355°
2026-04-20 22:09 28.64990 -82.47201 9008 ft 143 kts 354°
2026-04-20 22:09 28.65969 -82.47290 9486 ft 143 kts 354°
2026-04-20 22:09 28.66969 -82.47380 9929 ft 144 kts 354°
2026-04-20 22:09 28.67973 -82.47472 10363 ft 145 kts 353°
2026-04-20 22:10 28.68969 -82.47562 10796 ft 145 kts 353°
2026-04-20 22:10 28.69994 -82.47655 11213 ft 147 kts 352°
2026-04-20 22:10 28.70993 -82.47745 11631 ft 148 kts 351°
2026-04-20 22:10 28.72019 -82.47839 12062 ft 148 kts 351°
2026-04-20 22:11 28.73063 -82.47933 12456 ft 151 kts 351°
2026-04-20 22:11 28.74105 -82.48027 12899 ft 150 kts 350°
2026-04-20 22:11 28.75147 -82.48122 13278 ft 152 kts 350°
2026-04-20 22:11 28.76194 -82.48217 13680 ft 152 kts 349°
2026-04-20 22:12 28.77258 -82.48314 14045 ft 154 kts 348°
2026-04-20 22:12 28.78326 -82.48412 14395 ft 156 kts 348°
2026-04-20 22:12 28.79404 -82.48509 14745 ft 157 kts 347°
2026-04-20 22:12 28.80495 -82.48608 15105 ft 157 kts 347°
2026-04-20 22:13 28.81607 -82.48710 15385 ft 162 kts 347°
2026-04-20 22:13 28.82739 -82.48813 15679 ft 165 kts 346°
2026-04-20 22:13 28.83892 -82.48918 15953 ft 168 kts 346°
2026-04-20 22:13 28.85075 -82.49026 16234 ft 171 kts 346°
2026-04-20 22:14 28.86258 -82.49133 16517 ft 172 kts 346°
2026-04-20 22:14 28.87447 -82.49239 16849 ft 170 kts 345°
2026-04-20 22:14 28.88650 -82.49350 17091 ft 174 kts 345°
2026-04-20 22:14 28.89848 -82.49458 17403 ft 172 kts 344°
2026-04-20 22:15 28.91047 -82.49567 17654 ft 174 kts 343°
2026-04-20 22:15 28.92247 -82.49676 17908 ft 175 kts 343°
2026-04-20 22:15 28.93467 -82.49788 18161 ft 176 kts 344°
2026-04-20 22:15 28.94693 -82.49900 18394 ft 178 kts 343°
2026-04-20 22:16 28.95932 -82.50013 18642 ft 178 kts 343°
2026-04-20 22:16 28.97178 -82.50126 18884 ft 179 kts 343°
2026-04-20 22:16 28.98442 -82.50243 19016 ft 186 kts 343°
2026-04-20 22:16 28.99781 -82.50373 19023 ft 199 kts 345°
2026-04-20 22:17 29.01192 -82.50506 19014 ft 209 kts 345°
2026-04-20 22:17 29.02674 -82.50642 19018 ft 218 kts 345°
2026-04-20 22:17 29.04208 -82.50782 19014 ft 224 kts 346°
2026-04-20 22:17 29.05800 -82.50926 19015 ft 229 kts 346°
2026-04-20 22:18 29.07403 -82.51070 19017 ft 233 kts 346°
2026-04-20 22:18 29.09042 -82.51218 19020 ft 236 kts 346°
2026-04-20 22:18 29.10674 -82.51366 19017 ft 238 kts 346°
2026-04-20 22:18 29.12340 -82.51516 19019 ft 240 kts 346°
2026-04-20 22:19 29.14025 -82.51668 19020 ft 241 kts 347°
2026-04-20 22:19 29.15699 -82.51821 19019 ft 243 kts 346°
2026-04-20 22:19 29.17384 -82.51974 19016 ft 243 kts 346°
2026-04-20 22:19 29.19081 -82.52129 19015 ft 244 kts 346°
2026-04-20 22:20 29.20764 -82.52282 19014 ft 244 kts 346°
2026-04-20 22:20 29.22475 -82.52438 19014 ft 245 kts 347°
2026-04-20 22:20 29.24182 -82.52593 19018 ft 245 kts 346°
2026-04-20 22:20 29.25901 -82.52685 19015 ft 247 kts 350°
2026-04-20 22:21 29.27619 -82.52672 19015 ft 249 kts 352°
2026-04-20 22:21 29.29356 -82.52638 19012 ft 248 kts 351°
2026-04-20 22:21 29.31068 -82.52603 19016 ft 248 kts 352°
2026-04-20 22:21 29.32801 -82.52567 19021 ft 248 kts 352°
2026-04-20 22:22 29.34533 -82.52530 19030 ft 248 kts 352°
2026-04-20 22:22 29.36264 -82.52493 19026 ft 249 kts 352°
2026-04-20 22:22 29.38000 -82.52456 19031 ft 249 kts 352°
2026-04-20 22:22 29.39743 -82.52418 19025 ft 249 kts 352°
2026-04-20 22:23 29.41473 -82.52380 19028 ft 248 kts 352°
2026-04-20 22:23 29.43175 -82.52340 19174 ft 242 kts 352°
2026-04-20 22:23 29.44869 -82.52303 19190 ft 243 kts 352°
2026-04-20 22:23 29.46560 -82.52267 19191 ft 244 kts 352°
2026-04-20 22:24 29.48268 -82.52231 19189 ft 245 kts 352°
2026-04-20 22:24 29.49978 -82.52194 19197 ft 245 kts 352°
2026-04-20 22:24 29.51693 -82.52158 19197 ft 246 kts 352°
2026-04-20 22:24 29.53414 -82.52120 19188 ft 246 kts 352°
2026-04-20 22:25 29.55117 -82.52082 19191 ft 246 kts 351°
2026-04-20 22:25 29.56833 -82.52045 19203 ft 246 kts 352°
2026-04-20 22:25 29.58563 -82.52007 19199 ft 247 kts 352°
2026-04-20 22:25 29.60281 -82.51970 19192 ft 247 kts 352°
2026-04-20 22:26 29.61994 -82.51932 19194 ft 247 kts 352°
2026-04-20 22:26 29.63714 -82.51892 19191 ft 244 kts 352°
2026-04-20 22:26 29.65394 -82.51854 19196 ft 242 kts 351°
2026-04-20 22:27 29.68759 -82.51780 19207 ft 240 kts 352°
2026-04-20 22:27 29.70431 -82.51744 19206 ft 240 kts 352°
2026-04-20 22:27 29.72105 -82.51708 19193 ft 239 kts 352°
2026-04-20 22:27 29.73761 -82.51672 19197 ft 239 kts 352°
2026-04-20 22:28 29.75421 -82.51635 19201 ft 238 kts 352°
2026-04-20 22:28 29.77080 -82.51599 19200 ft 238 kts 352°
2026-04-20 22:28 29.78749 -82.51562 19203 ft 237 kts 352°
2026-04-20 22:28 29.80404 -82.51527 19202 ft 237 kts 352°
2026-04-20 22:29 29.82045 -82.51491 19206 ft 237 kts 352°
2026-04-20 22:29 29.83695 -82.51454 19210 ft 236 kts 352°
2026-04-20 22:29 29.85346 -82.51417 19212 ft 236 kts 351°
2026-04-20 22:29 29.86995 -82.51382 19210 ft 237 kts 352°
2026-04-20 22:30 29.88649 -82.51346 19207 ft 236 kts 351°
2026-04-20 22:30 29.90282 -82.51309 19204 ft 236 kts 352°
2026-04-20 22:30 29.91929 -82.51273 19206 ft 236 kts 352°
2026-04-20 22:30 29.93576 -82.51237 19205 ft 236 kts 352°
2026-04-20 22:31 29.95224 -82.51201 19202 ft 236 kts 352°
2026-04-20 22:31 29.96880 -82.51164 19197 ft 236 kts 352°
2026-04-20 22:31 29.98525 -82.51128 19197 ft 236 kts 352°
2026-04-20 22:31 30.00163 -82.51091 19204 ft 235 kts 352°
2026-04-20 22:32 30.01798 -82.51055 19207 ft 235 kts 352°
2026-04-20 22:32 30.03443 -82.51019 19202 ft 235 kts 352°
2026-04-20 22:32 30.05081 -82.50983 19208 ft 235 kts 352°
2026-04-20 22:32 30.06715 -82.50947 19206 ft 235 kts 352°
2026-04-20 22:33 30.08354 -82.50910 19204 ft 234 kts 352°
2026-04-20 22:33 30.09993 -82.50874 19214 ft 234 kts 352°
2026-04-20 22:33 30.11612 -82.50839 19217 ft 234 kts 352°
2026-04-20 22:33 30.13249 -82.50803 19211 ft 234 kts 352°
2026-04-20 22:34 30.14878 -82.50767 19217 ft 234 kts 352°
2026-04-20 22:34 30.16518 -82.50731 19215 ft 234 kts 351°
2026-04-20 22:34 30.18143 -82.50661 19221 ft 236 kts 354°
2026-04-20 22:34 30.19794 -82.50493 19215 ft 238 kts 356°
2026-04-20 22:35 30.21449 -82.50269 19220 ft 237 kts 357°
2026-04-20 22:35 30.23091 -82.50048 19223 ft 238 kts 357°
2026-04-20 22:35 30.24751 -82.49826 19232 ft 240 kts 357°
2026-04-20 22:35 30.26404 -82.49602 19233 ft 240 kts 357°
2026-04-20 22:36 30.28064 -82.49377 19226 ft 240 kts 357°
2026-04-20 22:36 30.29729 -82.49149 19231 ft 239 kts 357°
2026-04-20 22:36 30.31372 -82.48925 19229 ft 239 kts 358°
2026-04-20 22:36 30.33036 -82.48699 19223 ft 239 kts 358°
2026-04-20 22:37 30.34700 -82.48472 19218 ft 239 kts 357°
2026-04-20 22:37 30.36350 -82.48246 19224 ft 239 kts 358°
2026-04-20 22:37 30.37990 -82.48023 19226 ft 239 kts 357°
2026-04-20 22:37 30.39653 -82.47796 19222 ft 239 kts 358°
2026-04-20 22:38 30.41308 -82.47570 19223 ft 239 kts 358°
2026-04-20 22:38 30.42959 -82.47344 19227 ft 238 kts 358°
2026-04-20 22:38 30.44610 -82.47118 19227 ft 238 kts 358°
2026-04-20 22:38 30.46257 -82.46893 19231 ft 238 kts 358°
2026-04-20 22:39 30.47903 -82.46667 19225 ft 237 kts 358°
2026-04-20 22:39 30.49536 -82.46444 19227 ft 237 kts 358°
2026-04-20 22:39 30.51180 -82.46219 19228 ft 237 kts 358°
2026-04-20 22:39 30.52834 -82.45993 19225 ft 237 kts 358°
2026-04-20 22:40 30.54470 -82.45769 19225 ft 237 kts 358°
2026-04-20 22:40 30.56095 -82.45546 19230 ft 237 kts 358°
2026-04-20 22:40 30.57743 -82.45320 19225 ft 236 kts 358°
2026-04-20 22:40 30.59384 -82.45095 19226 ft 236 kts 358°
2026-04-20 22:41 30.61028 -82.44869 19227 ft 236 kts 358°
2026-04-20 22:41 30.62648 -82.44647 19228 ft 236 kts 358°
2026-04-20 22:41 30.64281 -82.44423 19230 ft 236 kts 358°
2026-04-20 22:41 30.65920 -82.44199 19230 ft 236 kts 358°
2026-04-20 22:42 30.67550 -82.43974 19227 ft 236 kts 358°
2026-04-20 22:42 30.69198 -82.43741 19224 ft 237 kts 359°
2026-04-20 22:42 30.70831 -82.43368 19226 ft 240 kts
2026-04-20 22:42 30.72459 -82.42842 19222 ft 242 kts
2026-04-20 22:43 30.74060 -82.42278 19229 ft 242 kts
2026-04-20 22:43 30.75674 -82.41704 19230 ft 242 kts
2026-04-20 22:43 30.77298 -82.41125 19228 ft 242 kts
2026-04-20 22:43 30.78916 -82.40549 19230 ft 242 kts
2026-04-20 22:44 30.80530 -82.39974 19226 ft 242 kts
2026-04-20 22:44 30.82130 -82.39405 19227 ft 242 kts
2026-04-20 22:44 30.83750 -82.38827 19231 ft 242 kts
2026-04-20 22:44 30.85344 -82.38261 19232 ft 242 kts
2026-04-20 22:45 30.86962 -82.37685 19232 ft 241 kts
2026-04-20 22:45 30.88569 -82.37112 19233 ft 241 kts
2026-04-20 22:45 30.90178 -82.36540 19234 ft 241 kts
2026-04-20 22:45 30.91794 -82.35963 19230 ft 241 kts
2026-04-20 22:46 30.93390 -82.35394 19233 ft 240 kts
2026-04-20 22:46 30.94980 -82.34827 19231 ft 240 kts
2026-04-20 22:46 30.96595 -82.34251 19233 ft 240 kts
2026-04-20 22:46 30.98176 -82.33688 19230 ft 240 kts
2026-04-20 22:47 30.99790 -82.33112 19229 ft 240 kts
2026-04-20 22:47 31.01392 -82.32539 19231 ft 240 kts
2026-04-20 22:47 31.02969 -82.31976 19231 ft 239 kts
2026-04-20 22:47 31.04582 -82.31400 19232 ft 239 kts
2026-04-20 22:48 31.06167 -82.30833 19233 ft 240 kts
2026-04-20 22:48 31.07765 -82.30263 19228 ft 239 kts
2026-04-20 22:48 31.09359 -82.29692 19224 ft 239 kts
2026-04-20 22:48 31.10949 -82.29123 19228 ft 239 kts
2026-04-20 22:49 31.12534 -82.28556 19240 ft 238 kts
2026-04-20 22:49 31.14145 -82.27979 19243 ft 239 kts
2026-04-20 22:49 31.15731 -82.27412 19248 ft 240 kts
2026-04-20 22:49 31.17336 -82.26837 19240 ft 241 kts
2026-04-20 22:50 31.18944 -82.26261 19234 ft 241 kts
2026-04-20 22:50 31.20551 -82.25685 19223 ft 241 kts
2026-04-20 22:50 31.22145 -82.25112 19224 ft 240 kts
2026-04-20 22:50 31.23758 -82.24533 19231 ft 240 kts
2026-04-20 22:51 31.25343 -82.23964 19217 ft 240 kts
2026-04-20 22:51 31.26946 -82.23389 19232 ft 240 kts
2026-04-20 22:51 31.28547 -82.22813 19240 ft 240 kts
2026-04-20 22:51 31.30146 -82.22240 19242 ft 241 kts
2026-04-20 22:52 31.31757 -82.21661 19229 ft 241 kts
2026-04-20 22:52 31.33367 -82.21082 19234 ft 242 kts
2026-04-20 22:52 31.34974 -82.20505 19233 ft 242 kts
2026-04-20 22:52 31.36597 -82.19920 19229 ft 242 kts
2026-04-20 22:53 31.38207 -82.19340 19230 ft 241 kts
2026-04-20 22:53 31.39798 -82.18767 19237 ft 241 kts
2026-04-20 22:53 31.41412 -82.18185 19235 ft 241 kts
2026-04-20 22:53 31.43016 -82.17607 19239 ft 240 kts
2026-04-20 22:54 31.44619 -82.17029 19242 ft 240 kts
2026-04-20 22:54 31.46210 -82.16456 19244 ft 240 kts
2026-04-20 22:54 31.47820 -82.15875 19247 ft 240 kts
2026-04-20 22:54 31.49403 -82.15304 19247 ft 240 kts
2026-04-20 22:55 31.51001 -82.14727 19248 ft 240 kts
2026-04-20 22:55 31.52606 -82.14147 19248 ft 240 kts
2026-04-20 22:55 31.54207 -82.13569 19248 ft 240 kts
2026-04-20 22:55 31.55786 -82.12998 19248 ft 240 kts
2026-04-20 22:56 31.57390 -82.12418 19244 ft 239 kts
2026-04-20 22:56 31.58986 -82.11841 19244 ft 239 kts
2026-04-20 22:56 31.60566 -82.11269 19249 ft 238 kts
2026-04-20 22:56 31.62153 -82.10695 19255 ft 239 kts
2026-04-20 22:57 31.63757 -82.10115 19250 ft 239 kts
2026-04-20 22:57 31.65335 -82.09544 19251 ft 239 kts
2026-04-20 22:57 31.66931 -82.08965 19252 ft 239 kts
2026-04-20 22:57 31.68528 -82.08387 19253 ft 240 kts
2026-04-20 22:58 31.70136 -82.07804 19254 ft 240 kts
2026-04-20 22:58 31.71734 -82.07224 19248 ft 240 kts
2026-04-20 22:58 31.73328 -82.06645 19250 ft 240 kts
2026-04-20 22:58 31.74911 -82.06071 19252 ft 239 kts
2026-04-20 22:59 31.76514 -82.05489 19251 ft 239 kts
2026-04-20 22:59 31.78095 -82.04915 19252 ft 239 kts
2026-04-20 22:59 31.79694 -82.04333 19252 ft 239 kts
2026-04-20 22:59 31.81283 -82.03757 19253 ft 239 kts
2026-04-20 23:00 31.82874 -82.03178 19254 ft 239 kts
2026-04-20 23:00 31.84476 -82.02595 19252 ft 239 kts
2026-04-20 23:00 31.86069 -82.02016 19252 ft 239 kts
2026-04-20 23:00 31.87656 -82.01435 19251 ft 239 kts
2026-04-20 23:01 31.89256 -82.00838 19246 ft 239 kts
2026-04-20 23:01 31.90839 -82.00246 19245 ft 238 kts
2026-04-20 23:01 31.92401 -81.99662 19247 ft 238 kts
2026-04-20 23:01 31.93990 -81.99069 19250 ft 238 kts
2026-04-20 23:02 31.95581 -81.98475 19240 ft 239 kts
2026-04-20 23:02 31.97172 -81.97881 19237 ft 239 kts
2026-04-20 23:02 31.98759 -81.97288 19224 ft 239 kts
2026-04-20 23:02 32.00326 -81.96701 19217 ft 237 kts
2026-04-20 23:03 32.01912 -81.96107 19215 ft 236 kts
2026-04-20 23:03 32.03469 -81.95525 19258 ft 235 kts
2026-04-20 23:03 32.05044 -81.94937 19240 ft 236 kts
2026-04-20 23:03 32.06615 -81.94350 19250 ft 237 kts
2026-04-20 23:04 32.08190 -81.93761 19239 ft 237 kts
2026-04-20 23:04 32.09761 -81.93173 19211 ft 236 kts
2026-04-20 23:04 32.11335 -81.92582 19252 ft 236 kts
2026-04-20 23:04 32.12888 -81.92001 19243 ft 236 kts
2026-04-20 23:05 32.14458 -81.91412 19247 ft 237 kts
2026-04-20 23:05 32.16041 -81.90781 19246 ft 239 kts 10°
2026-04-20 23:05 32.17610 -81.90082 19246 ft 240 kts 11°
2026-04-20 23:05 32.19164 -81.89368 19246 ft 240 kts 11°
2026-04-20 23:06 32.20716 -81.88660 19246 ft 240 kts 11°
2026-04-20 23:06 32.22282 -81.87949 19245 ft 240 kts 11°
2026-04-20 23:06 32.23854 -81.87239 19242 ft 240 kts 11°
2026-04-20 23:06 32.25403 -81.86543 19244 ft 240 kts 11°
2026-04-20 23:07 32.26966 -81.85841 19243 ft 240 kts 11°
2026-04-20 23:07 32.28540 -81.85137 19242 ft 240 kts 11°
2026-04-20 23:07 32.30098 -81.84439 19246 ft 240 kts 11°
2026-04-20 23:07 32.31666 -81.83737 19242 ft 241 kts 11°
2026-04-20 23:08 32.33236 -81.83034 19245 ft 241 kts 11°
2026-04-20 23:08 32.34809 -81.82330 19241 ft 241 kts 10°
2026-04-20 23:08 32.36377 -81.81628 19243 ft 241 kts 11°
2026-04-20 23:08 32.37939 -81.80929 19255 ft 241 kts 10°
2026-04-20 23:09 32.39516 -81.80223 19255 ft 241 kts 11°
2026-04-20 23:09 32.41065 -81.79529 19239 ft 241 kts 10°
2026-04-20 23:09 32.42641 -81.78822 19228 ft 240 kts 11°
2026-04-20 23:09 32.44209 -81.78118 19238 ft 239 kts 10°
2026-04-20 23:10 32.45764 -81.77420 19243 ft 239 kts 11°
2026-04-20 23:10 32.47309 -81.76727 19244 ft 239 kts 10°
2026-04-20 23:10 32.48866 -81.76029 19245 ft 239 kts 10°
2026-04-20 23:10 32.50432 -81.75326 19246 ft 239 kts 11°
2026-04-20 23:11 32.51967 -81.74636 19245 ft 239 kts 10°
2026-04-20 23:11 32.53529 -81.73934 19246 ft 238 kts 10°
2026-04-20 23:11 32.55093 -81.73231 19245 ft 238 kts 10°
2026-04-20 23:11 32.56643 -81.72534 19247 ft 238 kts 10°
2026-04-20 23:12 32.58186 -81.71841 19244 ft 238 kts 11°
2026-04-20 23:12 32.59745 -81.71139 19246 ft 238 kts 10°
2026-04-20 23:12 32.61281 -81.70447 19245 ft 237 kts 11°
2026-04-20 23:12 32.62832 -81.69748 19246 ft 237 kts 10°
2026-04-20 23:13 32.64379 -81.69051 19247 ft 237 kts 10°
2026-04-20 23:13 32.65922 -81.68356 19248 ft 237 kts 11°
2026-04-20 23:13 32.67466 -81.67660 19245 ft 237 kts 10°
2026-04-20 23:13 32.69012 -81.66962 19250 ft 237 kts 10°
2026-04-20 23:14 32.70560 -81.66264 19257 ft 237 kts 10°
2026-04-20 23:14 32.72093 -81.65572 19245 ft 237 kts 10°
2026-04-20 23:14 32.73636 -81.64876 19255 ft 237 kts 10°
2026-04-20 23:14 32.75190 -81.64174 19249 ft 237 kts 10°
2026-04-20 23:15 32.76717 -81.63484 19241 ft 237 kts 10°
2026-04-20 23:15 32.78264 -81.62785 19252 ft 237 kts 10°
2026-04-20 23:15 32.79816 -81.62083 19259 ft 238 kts 10°
2026-04-20 23:15 32.81373 -81.61379 19255 ft 238 kts 10°
2026-04-20 23:16 32.82905 -81.60686 19247 ft 238 kts 10°
2026-04-20 23:16 32.84478 -81.59973 19240 ft 238 kts 10°
2026-04-20 23:16 32.86025 -81.59272 19240 ft 238 kts 10°
2026-04-20 23:16 32.87569 -81.58572 19240 ft 237 kts 10°
2026-04-20 23:17 32.89098 -81.57879 19237 ft 237 kts 10°
2026-04-20 23:17 32.90646 -81.57177 19238 ft 236 kts 10°
2026-04-20 23:17 32.92181 -81.56491 19236 ft 235 kts
2026-04-20 23:17 32.93719 -81.55839 19239 ft 235 kts
2026-04-20 23:18 32.95261 -81.55187 19239 ft 234 kts
2026-04-20 23:18 32.96800 -81.54533 19238 ft 234 kts
2026-04-20 23:18 32.98346 -81.53876 19237 ft 234 kts
2026-04-20 23:18 32.99880 -81.53224 19234 ft 234 kts
2026-04-20 23:19 33.01406 -81.52574 19232 ft 234 kts
2026-04-20 23:19 33.02927 -81.51926 19234 ft 234 kts
2026-04-20 23:19 33.04478 -81.51263 19229 ft 234 kts
2026-04-20 23:19 33.05998 -81.50614 19226 ft 233 kts
2026-04-20 23:20 33.07527 -81.49961 19224 ft 233 kts
2026-04-20 23:20 33.09051 -81.49309 19233 ft 232 kts
2026-04-20 23:20 33.10584 -81.48654 19227 ft 232 kts
2026-04-20 23:20 33.12100 -81.48006 19231 ft 232 kts
2026-04-20 23:21 33.13625 -81.47353 19259 ft 232 kts
2026-04-20 23:21 33.15154 -81.46699 19245 ft 233 kts
2026-04-20 23:21 33.16682 -81.46045 19238 ft 234 kts
2026-04-20 23:21 33.18237 -81.45379 19245 ft 234 kts
2026-04-20 23:22 33.19761 -81.44725 19216 ft 234 kts
2026-04-20 23:22 33.21294 -81.44067 19243 ft 233 kts
2026-04-20 23:22 33.22834 -81.43406 19248 ft 234 kts
2026-04-20 23:22 33.24359 -81.42752 19242 ft 234 kts
2026-04-20 23:23 33.25893 -81.42094 19240 ft 234 kts
2026-04-20 23:23 33.27441 -81.41498 19248 ft 228 kts
2026-04-20 23:23 33.28991 -81.41370 19252 ft 221 kts 350°
2026-04-20 23:23 33.30528 -81.41488 19246 ft 220 kts 347°
2026-04-20 23:24 33.32035 -81.41674 19240 ft 219 kts 346°
2026-04-20 23:24 33.33561 -81.41899 19244 ft 219 kts 345°
2026-04-20 23:24 33.35070 -81.42119 19260 ft 220 kts 345°
2026-04-20 23:24 33.36610 -81.42338 19246 ft 221 kts 346°
2026-04-20 23:25 33.38132 -81.42549 19234 ft 221 kts 346°
2026-04-20 23:25 33.39657 -81.42758 19226 ft 220 kts 346°
2026-04-20 23:25 33.41196 -81.42967 19249 ft 220 kts 346°
2026-04-20 23:25 33.42713 -81.43172 19237 ft 221 kts 346°
2026-04-20 23:26 33.44257 -81.43380 19233 ft 221 kts 346°
2026-04-20 23:26 33.45770 -81.43582 19226 ft 219 kts 346°
2026-04-20 23:26 33.47290 -81.43785 19230 ft 218 kts 346°
2026-04-20 23:26 33.48791 -81.43986 19228 ft 217 kts 346°
2026-04-20 23:27 33.50305 -81.44189 19230 ft 217 kts 346°
2026-04-20 23:27 33.51805 -81.44390 19224 ft 217 kts 346°
2026-04-20 23:27 33.53299 -81.44590 19222 ft 216 kts 346°
2026-04-20 23:27 33.54792 -81.44790 19223 ft 216 kts 346°
2026-04-20 23:28 33.56298 -81.44992 19226 ft 216 kts 346°
2026-04-20 23:28 33.57776 -81.45190 19228 ft 215 kts 346°
2026-04-20 23:28 33.59275 -81.45391 19230 ft 215 kts 346°
2026-04-20 23:28 33.60760 -81.45590 19227 ft 215 kts 346°
2026-04-20 23:29 33.62257 -81.45791 19230 ft 215 kts 346°
2026-04-20 23:29 33.63734 -81.45989 19223 ft 215 kts 346°
2026-04-20 23:29 33.65227 -81.46189 19227 ft 215 kts 346°
2026-04-20 23:29 33.66707 -81.46388 19224 ft 215 kts 346°
2026-04-20 23:30 33.68209 -81.46590 19222 ft 215 kts 346°
2026-04-20 23:30 33.69677 -81.46787 19225 ft 214 kts 346°
2026-04-20 23:30 33.71172 -81.46988 19223 ft 215 kts 346°
2026-04-20 23:30 33.72647 -81.47186 19229 ft 214 kts 346°
2026-04-20 23:31 33.74144 -81.47388 19224 ft 214 kts 346°
2026-04-20 23:31 33.75622 -81.47587 19223 ft 214 kts 346°
2026-04-20 23:31 33.77121 -81.47788 19220 ft 214 kts 346°
2026-04-20 23:31 33.78594 -81.47987 19220 ft 214 kts 346°
2026-04-20 23:32 33.80078 -81.48186 19223 ft 214 kts 346°
2026-04-20 23:32 33.81546 -81.48384 19220 ft 214 kts 346°
2026-04-20 23:32 33.83036 -81.48585 19223 ft 214 kts 346°
2026-04-20 23:32 33.84529 -81.48786 19223 ft 214 kts 346°
2026-04-20 23:33 33.85998 -81.48984 19225 ft 214 kts 346°
2026-04-20 23:33 33.87492 -81.49186 19222 ft 214 kts 346°
2026-04-20 23:33 33.88965 -81.49384 19220 ft 214 kts 346°
2026-04-20 23:33 33.90455 -81.49586 19219 ft 214 kts 346°
2026-04-20 23:34 33.91922 -81.49783 19220 ft 213 kts 346°
2026-04-20 23:34 33.93409 -81.49984 19223 ft 213 kts 346°
2026-04-20 23:34 33.94893 -81.50185 19223 ft 213 kts 346°
2026-04-20 23:34 33.96346 -81.50411 19222 ft 212 kts 343°
2026-04-20 23:35 33.97806 -81.50728 19223 ft 211 kts 342°
2026-04-20 23:35 34.00699 -81.51434 19220 ft 212 kts 342°
2026-04-20 23:35 34.02135 -81.51776 19217 ft 211 kts 342°
2026-04-20 23:36 34.03589 -81.52118 19222 ft 211 kts 342°
2026-04-20 23:36 34.05025 -81.52451 19219 ft 211 kts 342°
2026-04-20 23:36 34.06480 -81.52788 19218 ft 211 kts 342°
2026-04-20 23:36 34.07925 -81.53120 19217 ft 211 kts 342°
2026-04-20 23:37 34.09359 -81.53449 19218 ft 211 kts 342°
2026-04-20 23:37 34.10806 -81.53779 19226 ft 211 kts 342°
2026-04-20 23:37 34.12242 -81.54108 19225 ft 211 kts 342°
2026-04-20 23:37 34.13693 -81.54439 19225 ft 212 kts 343°
2026-04-20 23:38 34.15148 -81.54772 19228 ft 212 kts 342°
2026-04-20 23:38 34.16607 -81.55105 19229 ft 212 kts 342°
2026-04-20 23:38 34.18065 -81.55438 19224 ft 212 kts 342°
2026-04-20 23:38 34.19505 -81.55767 19220 ft 212 kts 342°
2026-04-20 23:39 34.20969 -81.56101 19238 ft 211 kts 342°
2026-04-20 23:39 34.22407 -81.56430 19235 ft 212 kts 342°
2026-04-20 23:39 34.23862 -81.56763 19235 ft 212 kts 342°
2026-04-20 23:39 34.25315 -81.57095 19225 ft 212 kts 342°
2026-04-20 23:40 34.26754 -81.57424 19223 ft 211 kts 342°
2026-04-20 23:40 34.28200 -81.57755 19235 ft 211 kts 342°
2026-04-20 23:40 34.29641 -81.58086 19238 ft 211 kts 342°
2026-04-20 23:40 34.31102 -81.58421 19237 ft 212 kts 342°
2026-04-20 23:41 34.32545 -81.58751 19236 ft 211 kts 342°
2026-04-20 23:41 34.34005 -81.59086 19239 ft 211 kts 342°
2026-04-20 23:41 34.35455 -81.59418 19236 ft 211 kts 342°
2026-04-20 23:41 34.36898 -81.59750 19234 ft 212 kts 342°
2026-04-20 23:42 34.38355 -81.60084 19243 ft 211 kts 342°
2026-04-20 23:42 34.39784 -81.60412 19246 ft 212 kts 343°
2026-04-20 23:42 34.41248 -81.60748 19242 ft 212 kts 342°
2026-04-20 23:42 34.42696 -81.61081 19237 ft 213 kts 343°
2026-04-20 23:43 34.44160 -81.61417 19230 ft 213 kts 342°
2026-04-20 23:43 34.45611 -81.61750 19226 ft 213 kts 342°
2026-04-20 23:43 34.47066 -81.62085 19234 ft 212 kts 342°
2026-04-20 23:43 34.48514 -81.62418 19239 ft 212 kts 342°
2026-04-20 23:44 34.49978 -81.62755 19231 ft 213 kts 343°
2026-04-20 23:44 34.51427 -81.63089 19225 ft 213 kts 342°
2026-04-20 23:44 34.52887 -81.63425 19221 ft 212 kts 342°
2026-04-20 23:44 34.54331 -81.63757 19222 ft 212 kts 342°
2026-04-20 23:45 34.55799 -81.64095 19223 ft 212 kts 342°
2026-04-20 23:45 34.57246 -81.64429 19223 ft 212 kts 342°
2026-04-20 23:45 34.58700 -81.64764 19222 ft 212 kts 342°
2026-04-20 23:45 34.60147 -81.65098 19221 ft 212 kts 342°
2026-04-20 23:46 34.61588 -81.65430 19219 ft 212 kts 343°
2026-04-20 23:46 34.63044 -81.65767 19224 ft 212 kts 343°
2026-04-20 23:46 34.64487 -81.66100 19219 ft 212 kts 342°
2026-04-20 23:46 34.65930 -81.66434 19221 ft 212 kts 342°
2026-04-20 23:47 34.67400 -81.66773 19220 ft 212 kts 343°
2026-04-20 23:47 34.68847 -81.67107 19221 ft 212 kts 343°
2026-04-20 23:47 34.70292 -81.67442 19222 ft 212 kts 343°
2026-04-20 23:47 34.71740 -81.67776 19222 ft 212 kts 343°
2026-04-20 23:48 34.73175 -81.68109 19221 ft 212 kts 343°
2026-04-20 23:48 34.74627 -81.68445 19218 ft 211 kts 343°
2026-04-20 23:48 34.76075 -81.68780 19219 ft 211 kts 342°
2026-04-20 23:48 34.77522 -81.69115 19220 ft 211 kts 343°
2026-04-20 23:49 34.78977 -81.69453 19221 ft 211 kts 343°
2026-04-20 23:49 34.80413 -81.69786 19221 ft 211 kts 342°
2026-04-20 23:49 34.81857 -81.70121 19218 ft 211 kts 342°
2026-04-20 23:49 34.83295 -81.70454 19216 ft 210 kts 343°
2026-04-20 23:50 34.84741 -81.70790 19215 ft 210 kts 342°
2026-04-20 23:50 34.86164 -81.71121 19222 ft 210 kts 343°
2026-04-20 23:50 34.87619 -81.71458 19209 ft 210 kts 342°
2026-04-20 23:50 34.89036 -81.71787 19224 ft 210 kts 342°
2026-04-20 23:51 34.90480 -81.72123 19213 ft 211 kts 342°
2026-04-20 23:51 34.91933 -81.72462 19206 ft 211 kts 343°
2026-04-20 23:51 34.93366 -81.72794 19211 ft 211 kts 343°
2026-04-20 23:51 34.94817 -81.73132 19205 ft 211 kts 343°
2026-04-20 23:52 34.96257 -81.73467 19198 ft 211 kts 343°
2026-04-20 23:52 34.97705 -81.73804 19201 ft 211 kts 343°
2026-04-20 23:52 34.99148 -81.74143 19205 ft 211 kts 343°
2026-04-20 23:52 35.00592 -81.74483 19199 ft 211 kts 343°
2026-04-20 23:53 35.02026 -81.74822 19199 ft 210 kts 343°
2026-04-20 23:53 35.03463 -81.75159 19204 ft 210 kts 343°
2026-04-20 23:53 35.04901 -81.75499 19206 ft 210 kts 343°
2026-04-20 23:53 35.06333 -81.75836 19205 ft 210 kts 342°
2026-04-20 23:54 35.07771 -81.76176 19201 ft 210 kts 343°
2026-04-20 23:54 35.09216 -81.76517 19206 ft 210 kts 343°
2026-04-20 23:54 35.10650 -81.76856 19210 ft 211 kts 343°
2026-04-20 23:54 35.12088 -81.77195 19210 ft 211 kts 342°
2026-04-20 23:55 35.13544 -81.77538 19209 ft 211 kts 343°
2026-04-20 23:55 35.14981 -81.77879 19213 ft 211 kts 343°
2026-04-20 23:55 35.16420 -81.78218 19213 ft 211 kts 343°
2026-04-20 23:55 35.17869 -81.78561 19211 ft 211 kts 342°
2026-04-20 23:56 35.19313 -81.78902 19220 ft 211 kts 343°
2026-04-20 23:56 35.20756 -81.79243 19221 ft 211 kts 343°
2026-04-20 23:56 35.22204 -81.79586 19219 ft 212 kts 343°
2026-04-20 23:56 35.23651 -81.79929 19223 ft 211 kts 343°
2026-04-20 23:57 35.25114 -81.80275 19223 ft 211 kts 343°
2026-04-20 23:57 35.26555 -81.80616 19236 ft 211 kts 343°
2026-04-20 23:57 35.28000 -81.80959 19235 ft 212 kts 343°
2026-04-20 23:57 35.29440 -81.81300 19236 ft 212 kts 343°
2026-04-20 23:58 35.30892 -81.81644 19229 ft 212 kts 343°
2026-04-20 23:58 35.32345 -81.81989 19229 ft 211 kts 343°
2026-04-20 23:58 35.33784 -81.82330 19224 ft 211 kts 343°
2026-04-20 23:58 35.35220 -81.82671 19243 ft 210 kts 342°
2026-04-20 23:59 35.36657 -81.83012 19237 ft 211 kts 343°
2026-04-20 23:59 35.38113 -81.83358 19249 ft 211 kts 342°
2026-04-20 23:59 35.39550 -81.83701 19252 ft 211 kts 342°
2026-04-20 23:59 35.40988 -81.84042 19251 ft 211 kts 342°
2026-04-21 00:00 35.42433 -81.84386 19249 ft 211 kts 343°
2026-04-21 00:00 35.43888 -81.84732 19258 ft 211 kts 342°
2026-04-21 00:00 35.45328 -81.85075 19251 ft 211 kts 343°
2026-04-21 00:00 35.46771 -81.85418 19257 ft 211 kts 342°
2026-04-21 00:01 35.48204 -81.85760 19254 ft 211 kts 342°
2026-04-21 00:01 35.49652 -81.86105 19262 ft 212 kts 343°
2026-04-21 00:01 35.51100 -81.86450 19249 ft 212 kts 342°
2026-04-21 00:01 35.52558 -81.86798 19259 ft 212 kts 342°
2026-04-21 00:02 35.54005 -81.87143 19253 ft 213 kts 343°
2026-04-21 00:02 35.55465 -81.87492 19257 ft 213 kts 343°
2026-04-21 00:02 35.56903 -81.87835 19250 ft 213 kts 343°
2026-04-21 00:02 35.58360 -81.88183 19256 ft 212 kts 343°
2026-04-21 00:03 35.59819 -81.88532 19264 ft 212 kts 342°
2026-04-21 00:03 35.61264 -81.88876 19266 ft 212 kts 342°
2026-04-21 00:03 35.62712 -81.89223 19264 ft 212 kts 342°
2026-04-21 00:03 35.64172 -81.89572 19262 ft 213 kts 342°
2026-04-21 00:04 35.65622 -81.89919 19263 ft 212 kts 342°
2026-04-21 00:04 35.67079 -81.90267 19263 ft 212 kts 342°
2026-04-21 00:04 35.68527 -81.90614 19257 ft 212 kts 342°
2026-04-21 00:04 35.69985 -81.90963 19262 ft 212 kts 343°
2026-04-21 00:05 35.71413 -81.91305 19261 ft 211 kts 342°
2026-04-21 00:05 35.72859 -81.91652 19260 ft 211 kts 342°
2026-04-21 00:05 35.74302 -81.92023 19268 ft 210 kts 339°
2026-04-21 00:05 35.75659 -81.92641 19271 ft 207 kts 332°
2026-04-21 00:06 35.76966 -81.93394 19268 ft 207 kts 330°
2026-04-21 00:06 35.78263 -81.94197 19265 ft 207 kts 329°
2026-04-21 00:06 35.79540 -81.94997 19265 ft 207 kts 330°
2026-04-21 00:06 35.80830 -81.95805 19271 ft 207 kts 330°
2026-04-21 00:07 35.82105 -81.96600 19272 ft 207 kts 330°
2026-04-21 00:07 35.83399 -81.97405 19268 ft 207 kts 330°
2026-04-21 00:07 35.84679 -81.98200 19265 ft 207 kts 330°
2026-04-21 00:07 35.85983 -81.99010 19267 ft 208 kts 330°
2026-04-21 00:08 35.87259 -81.99802 19263 ft 208 kts 330°
2026-04-21 00:08 35.88559 -82.00608 19266 ft 208 kts 330°
2026-04-21 00:08 35.89853 -82.01411 19265 ft 208 kts 330°
2026-04-21 00:08 35.91136 -82.02207 19257 ft 208 kts 330°
2026-04-21 00:09 35.92440 -82.03016 19252 ft 208 kts 330°
2026-04-21 00:09 35.93737 -82.03821 19249 ft 207 kts 330°
2026-04-21 00:09 35.95021 -82.04618 19253 ft 207 kts 330°
2026-04-21 00:09 35.96301 -82.05414 19248 ft 207 kts 330°
2026-04-21 00:10 35.97588 -82.06213 19252 ft 207 kts 330°
2026-04-21 00:10 35.98881 -82.07017 19247 ft 207 kts 330°
2026-04-21 00:10 36.00179 -82.07824 19248 ft 207 kts 330°
2026-04-21 00:10 36.01453 -82.08617 19241 ft 207 kts 330°
2026-04-21 00:11 36.02743 -82.09419 19249 ft 206 kts 330°
2026-04-21 00:11 36.04025 -82.10217 19250 ft 206 kts 330°
2026-04-21 00:11 36.05295 -82.11008 19250 ft 205 kts 330°
2026-04-21 00:11 36.06585 -82.11811 19248 ft 205 kts 330°
2026-04-21 00:12 36.07853 -82.12601 19250 ft 206 kts 330°
2026-04-21 00:12 36.09137 -82.13403 19249 ft 206 kts 330°
2026-04-21 00:12 36.10413 -82.14198 19257 ft 206 kts 330°
2026-04-21 00:12 36.11703 -82.15003 19265 ft 206 kts 330°
2026-04-21 00:13 36.12981 -82.15801 19268 ft 207 kts 330°
2026-04-21 00:13 36.14280 -82.16612 19273 ft 207 kts 330°
2026-04-21 00:13 36.15559 -82.17411 19276 ft 207 kts 330°
2026-04-21 00:13 36.16852 -82.18218 19274 ft 207 kts 330°
2026-04-21 00:14 36.18139 -82.19023 19281 ft 207 kts 330°
2026-04-21 00:14 36.19425 -82.19827 19288 ft 206 kts 330°
2026-04-21 00:14 36.20703 -82.20626 19283 ft 206 kts 330°
2026-04-21 00:14 36.21989 -82.21431 19293 ft 207 kts 330°
2026-04-21 00:15 36.23292 -82.22247 19285 ft 208 kts 330°
2026-04-21 00:15 36.24577 -82.23051 19277 ft 208 kts 330°
2026-04-21 00:15 36.25868 -82.23860 19277 ft 207 kts 330°
2026-04-21 00:15 36.27156 -82.24667 19279 ft 207 kts 330°
2026-04-21 00:16 36.28433 -82.25468 19288 ft 207 kts 330°
2026-04-21 00:16 36.29725 -82.26278 19284 ft 207 kts 330°
2026-04-21 00:16 36.31009 -82.27084 19287 ft 208 kts 330°
2026-04-21 00:16 36.32303 -82.27895 19275 ft 207 kts 330°
2026-04-21 00:17 36.33579 -82.28696 19274 ft 206 kts 330°
2026-04-21 00:17 36.34871 -82.29507 19294 ft 206 kts 330°
2026-04-21 00:17 36.36145 -82.30308 19294 ft 206 kts 330°
2026-04-21 00:17 36.37420 -82.31110 19282 ft 206 kts 330°
2026-04-21 00:18 36.38704 -82.31917 19283 ft 205 kts 330°
2026-04-21 00:18 36.39973 -82.32715 19288 ft 205 kts 330°
2026-04-21 00:18 36.41244 -82.33514 19307 ft 205 kts 330°
2026-04-21 00:18 36.42527 -82.34323 19306 ft 206 kts 330°
2026-04-21 00:19 36.43795 -82.35120 19296 ft 205 kts 330°
2026-04-21 00:19 36.45076 -82.35928 19305 ft 205 kts 330°
2026-04-21 00:19 36.46356 -82.36734 19301 ft 206 kts 330°
2026-04-21 00:19 36.47623 -82.37534 19300 ft 206 kts 330°
2026-04-21 00:20 36.48911 -82.38345 19301 ft 206 kts 330°
2026-04-21 00:20 36.50185 -82.39149 19304 ft 206 kts 330°
2026-04-21 00:20 36.51471 -82.39960 19304 ft 206 kts 330°
2026-04-21 00:20 36.52738 -82.40761 19303 ft 206 kts 330°
2026-04-21 00:21 36.54022 -82.41571 19302 ft 206 kts 330°
2026-04-21 00:21 36.55294 -82.42375 19319 ft 206 kts 330°
2026-04-21 00:21 36.56585 -82.43191 19295 ft 207 kts 330°
2026-04-21 00:21 36.57854 -82.43994 19306 ft 206 kts 330°
2026-04-21 00:22 36.59141 -82.44807 19300 ft 206 kts 330°
2026-04-21 00:22 36.60415 -82.45614 19313 ft 206 kts 330°
2026-04-21 00:22 36.61710 -82.46433 19290 ft 207 kts 330°
2026-04-21 00:22 36.62986 -82.47241 19305 ft 207 kts 330°
2026-04-21 00:23 36.64273 -82.48056 19301 ft 207 kts 330°
2026-04-21 00:23 36.65553 -82.48868 19299 ft 207 kts 330°
2026-04-21 00:23 36.66843 -82.49686 19303 ft 208 kts 330°
2026-04-21 00:23 36.68126 -82.50500 19284 ft 208 kts 330°
2026-04-21 00:24 36.69421 -82.51321 19281 ft 208 kts 330°
2026-04-21 00:24 36.70702 -82.52134 19283 ft 208 kts 330°
2026-04-21 00:24 36.72001 -82.52959 19282 ft 207 kts 330°
2026-04-21 00:24 36.73282 -82.53772 19278 ft 207 kts 330°
2026-04-21 00:25 36.74562 -82.54585 19281 ft 206 kts 330°
2026-04-21 00:25 36.75847 -82.55402 19288 ft 206 kts 330°
2026-04-21 00:25 36.77128 -82.56216 19279 ft 206 kts 330°
2026-04-21 00:25 36.78407 -82.57030 19288 ft 206 kts 330°
2026-04-21 00:26 36.79680 -82.57840 19281 ft 206 kts 330°
2026-04-21 00:26 36.80946 -82.58705 19294 ft 205 kts 326°
2026-04-21 00:26 36.82133 -82.59706 19281 ft 206 kts 327°
2026-04-21 00:26 36.83548 -82.60066 19282 ft 216 kts 354°
2026-04-21 00:27 36.85040 -82.60004 19287 ft 216 kts 354°
2026-04-21 00:27 36.86551 -82.59925 19290 ft 215 kts 354°
2026-04-21 00:27 36.88049 -82.59847 19283 ft 215 kts 355°
2026-04-21 00:27 36.89539 -82.59772 19301 ft 215 kts 354°
2026-04-21 00:28 36.91035 -82.59699 19292 ft 215 kts 354°
2026-04-21 00:28 36.92529 -82.59626 19295 ft 214 kts 354°
2026-04-21 00:28 36.94032 -82.59554 19297 ft 214 kts 354°
2026-04-21 00:28 36.95514 -82.59484 19304 ft 214 kts 354°
2026-04-21 00:29 36.96994 -82.59415 19307 ft 214 kts 354°
2026-04-21 00:29 36.98494 -82.59345 19304 ft 214 kts 354°
2026-04-21 00:29 36.99977 -82.59275 19308 ft 214 kts 354°
2026-04-21 00:29 37.01471 -82.59206 19311 ft 214 kts 354°
2026-04-21 00:30 37.02983 -82.59135 19313 ft 215 kts 354°
2026-04-21 00:30 37.04467 -82.59066 19307 ft 216 kts 354°
2026-04-21 00:30 37.05968 -82.58996 19295 ft 216 kts 354°
2026-04-21 00:30 37.07482 -82.58925 19300 ft 216 kts 354°
2026-04-21 00:31 37.08970 -82.58855 19295 ft 216 kts 354°
2026-04-21 00:31 37.10488 -82.58784 19306 ft 216 kts 354°
2026-04-21 00:31 37.11985 -82.58714 19306 ft 217 kts 354°
2026-04-21 00:31 37.13508 -82.58643 19292 ft 217 kts 354°
2026-04-21 00:32 37.15001 -82.58573 19306 ft 217 kts 354°
2026-04-21 00:32 37.16518 -82.58502 19298 ft 217 kts 354°
2026-04-21 00:32 37.18035 -82.58431 19300 ft 218 kts 354°
2026-04-21 00:32 37.19554 -82.58360 19298 ft 218 kts 354°
2026-04-21 00:33 37.21062 -82.58289 19295 ft 218 kts 355°
2026-04-21 00:33 37.22580 -82.58218 19292 ft 218 kts 354°
2026-04-21 00:33 37.24090 -82.58147 19292 ft 218 kts 354°
2026-04-21 00:33 37.25616 -82.58075 19293 ft 218 kts 354°
2026-04-21 00:34 37.27130 -82.58004 19296 ft 218 kts 354°
2026-04-21 00:34 37.28651 -82.57933 19295 ft 218 kts 355°
2026-04-21 00:34 37.30172 -82.57861 19297 ft 218 kts 354°
2026-04-21 00:34 37.31692 -82.57790 19297 ft 218 kts 354°
2026-04-21 00:35 37.33207 -82.57719 19301 ft 218 kts 354°
2026-04-21 00:35 37.34718 -82.57647 19301 ft 218 kts 354°
2026-04-21 00:35 37.36229 -82.57576 19301 ft 217 kts 355°
2026-04-21 00:35 37.37729 -82.57500 19295 ft 211 kts 354°
2026-04-21 00:36 37.39185 -82.57429 19297 ft 206 kts 354°
2026-04-21 00:36 37.40607 -82.57362 19301 ft 203 kts 354°
2026-04-21 00:36 37.41999 -82.57297 19305 ft 200 kts 354°
2026-04-21 00:36 37.43394 -82.57232 19301 ft 198 kts 353°
2026-04-21 00:37 37.44750 -82.57169 19307 ft 196 kts 354°
2026-04-21 00:37 37.46120 -82.57105 19315 ft 195 kts 353°
2026-04-21 00:37 37.47471 -82.57043 19317 ft 194 kts 353°
2026-04-21 00:37 37.48818 -82.56979 19309 ft 194 kts 354°
2026-04-21 00:38 37.50156 -82.56918 19310 ft 193 kts 354°
2026-04-21 00:38 37.51511 -82.56853 19317 ft 193 kts 353°
2026-04-21 00:38 37.52856 -82.56791 19311 ft 193 kts 353°
2026-04-21 00:38 37.54201 -82.56728 19315 ft 193 kts 353°
2026-04-21 00:39 37.55545 -82.56664 19314 ft 193 kts 354°
2026-04-21 00:39 37.56889 -82.56601 19315 ft 193 kts 354°
2026-04-21 00:39 37.58244 -82.56537 19314 ft 193 kts 353°
2026-04-21 00:39 37.59595 -82.56473 19315 ft 193 kts 354°
2026-04-21 00:40 37.60933 -82.56409 19314 ft 193 kts 354°
2026-04-21 00:40 37.62277 -82.56346 19313 ft 193 kts 354°
2026-04-21 00:40 37.63623 -82.56282 19314 ft 193 kts 353°
2026-04-21 00:40 37.64967 -82.56218 19317 ft 193 kts 353°
2026-04-21 00:41 37.66310 -82.56155 19320 ft 193 kts 354°
2026-04-21 00:41 37.67666 -82.56090 19321 ft 193 kts 353°
2026-04-21 00:41 37.69006 -82.56027 19320 ft 193 kts 354°
2026-04-21 00:41 37.70353 -82.55962 19319 ft 193 kts 353°
2026-04-21 00:42 37.71688 -82.55899 19318 ft 193 kts 354°
2026-04-21 00:42 37.73027 -82.55836 19321 ft 193 kts 354°
2026-04-21 00:42 37.74367 -82.55772 19319 ft 193 kts 353°
2026-04-21 00:42 37.75713 -82.55708 19319 ft 193 kts 354°
2026-04-21 00:43 37.77064 -82.55643 19319 ft 193 kts 354°
2026-04-21 00:43 37.78401 -82.55580 19319 ft 193 kts 354°
2026-04-21 00:43 37.79741 -82.55516 19319 ft 193 kts 354°
2026-04-21 00:43 37.81081 -82.55452 19324 ft 193 kts 354°
2026-04-21 00:44 37.82426 -82.55389 19321 ft 193 kts 354°
2026-04-21 00:44 37.83762 -82.55325 19320 ft 193 kts 354°
2026-04-21 00:44 37.85101 -82.55260 19316 ft 193 kts 354°
2026-04-21 00:45 37.87797 -82.55132 19316 ft 193 kts 354°
2026-04-21 00:45 37.89140 -82.55068 19319 ft 193 kts 354°
2026-04-21 00:45 37.90485 -82.55004 19322 ft 194 kts 354°
2026-04-21 00:45 37.91828 -82.54940 19320 ft 194 kts 354°
2026-04-21 00:46 37.93193 -82.54874 19318 ft 194 kts 354°
2026-04-21 00:46 37.94543 -82.54810 19313 ft 195 kts 354°
2026-04-21 00:46 37.95898 -82.54745 19311 ft 195 kts 354°
2026-04-21 00:46 37.97249 -82.54681 19310 ft 194 kts 354°
2026-04-21 00:47 37.98590 -82.54718 19314 ft 190 kts 347°
2026-04-21 00:47 37.99886 -82.55022 19316 ft 188 kts 342°
2026-04-21 00:47 38.01160 -82.55405 19310 ft 187 kts 340°
2026-04-21 00:47 38.02406 -82.55814 19307 ft 187 kts 340°
2026-04-21 00:48 38.03672 -82.56211 19305 ft 188 kts 344°
2026-04-21 00:48 38.04983 -82.56369 19306 ft 189 kts 349°
2026-04-21 00:48 38.06310 -82.56464 19311 ft 190 kts 350°
2026-04-21 00:48 38.07634 -82.56552 19304 ft 189 kts 349°
2026-04-21 00:49 38.08940 -82.56638 19277 ft 189 kts 350°
2026-04-21 00:49 38.10250 -82.56723 19106 ft 190 kts 350°
2026-04-21 00:49 38.11568 -82.56808 18898 ft 187 kts 350°
2026-04-21 00:49 38.12882 -82.56893 18539 ft 190 kts 350°
2026-04-21 00:50 38.14186 -82.56978 18161 ft 188 kts 350°
2026-04-21 00:50 38.15516 -82.57065 17657 ft 191 kts 350°
2026-04-21 00:50 38.16814 -82.57149 17280 ft 188 kts 350°
2026-04-21 00:50 38.18113 -82.57235 16846 ft 189 kts 350°
2026-04-21 00:51 38.19437 -82.57320 16427 ft 187 kts 351°
2026-04-21 00:51 38.20723 -82.57404 15969 ft 187 kts 350°
2026-04-21 00:51 38.22017 -82.57488 15487 ft 187 kts 351°
2026-04-21 00:51 38.23310 -82.57572 15032 ft 187 kts 351°
2026-04-21 00:52 38.24603 -82.57656 14553 ft 187 kts 351°
2026-04-21 00:52 38.25893 -82.57739 14114 ft 186 kts 351°
2026-04-21 00:52 38.27176 -82.57920 13645 ft 181 kts 337°
2026-04-21 00:52 38.28161 -82.58817 13201 ft 177 kts 314°
2026-04-21 00:53 38.28940 -82.60059 12848 ft 185 kts 306°
2026-04-21 00:53 38.29645 -82.61430 12845 ft 183 kts 305°
2026-04-21 00:53 38.30489 -82.62595 12830 ft 181 kts 329°
2026-04-21 00:53 38.31724 -82.63006 12742 ft 186 kts 341°
2026-04-21 00:54 38.32997 -82.63417 12600 ft 188 kts 341°
2026-04-21 00:54 38.34255 -82.63864 12452 ft 190 kts 340°
2026-04-21 00:54 38.35535 -82.64324 12342 ft 191 kts 339°
2026-04-21 00:54 38.36806 -82.64787 12284 ft 190 kts 340°
2026-04-21 00:55 38.38087 -82.65246 12199 ft 188 kts 339°
2026-04-21 00:55 38.39344 -82.65691 12088 ft 189 kts 339°
2026-04-21 00:55 38.40617 -82.66138 11969 ft 189 kts 340°
2026-04-21 00:55 38.41881 -82.66579 11882 ft 188 kts 340°
2026-04-21 00:56 38.43147 -82.67017 11783 ft 186 kts 340°
2026-04-21 00:56 38.44394 -82.67447 11500 ft 187 kts 340°
2026-04-21 00:56 38.45658 -82.67885 11257 ft 187 kts 340°
2026-04-21 00:56 38.46910 -82.68319 10989 ft 188 kts 340°
2026-04-21 00:57 38.48170 -82.68755 10758 ft 187 kts 340°
2026-04-21 00:57 38.49422 -82.69187 10537 ft 186 kts 340°
2026-04-21 00:57 38.50678 -82.69622 10289 ft 186 kts 340°
2026-04-21 00:57 38.51921 -82.70052 10070 ft 185 kts 340°
2026-04-21 00:58 38.53169 -82.70483 9856 ft 184 kts 340°
2026-04-21 00:58 38.54420 -82.70915 9609 ft 185 kts 340°
2026-04-21 00:58 38.55659 -82.71344 9380 ft 186 kts 340°
2026-04-21 00:58 38.56907 -82.71776 9148 ft 186 kts 340°
2026-04-21 00:59 38.58168 -82.72212 8929 ft 186 kts 340°
2026-04-21 00:59 38.59410 -82.72643 8708 ft 186 kts 341°
2026-04-21 00:59 38.60669 -82.73078 8504 ft 186 kts 341°
2026-04-21 00:59 38.61929 -82.73515 8286 ft 187 kts 341°
2026-04-21 01:00 38.63179 -82.73948 8065 ft 187 kts 341°
2026-04-21 01:00 38.64444 -82.74387 7865 ft 187 kts 341°
2026-04-21 01:00 38.65710 -82.74825 7661 ft 188 kts 341°
2026-04-21 01:00 38.66974 -82.75264 7461 ft 188 kts 341°
2026-04-21 01:01 38.68241 -82.75703 7267 ft 189 kts 341°
2026-04-21 01:01 38.69516 -82.76146 7094 ft 188 kts 341°
2026-04-21 01:01 38.70781 -82.76588 6934 ft 191 kts 341°
2026-04-21 01:01 38.72063 -82.77032 6874 ft 189 kts 341°
2026-04-21 01:02 38.73323 -82.77469 6724 ft 189 kts 341°
2026-04-21 01:02 38.74597 -82.77911 6557 ft 190 kts 341°
2026-04-21 01:02 38.75879 -82.78357 6421 ft 189 kts 341°
2026-04-21 01:02 38.77144 -82.78797 6275 ft 190 kts 342°
2026-04-21 01:03 38.78425 -82.79243 6142 ft 189 kts 342°
2026-04-21 01:03 38.79705 -82.79689 6017 ft 189 kts 342°
2026-04-21 01:03 38.80976 -82.80131 5825 ft 189 kts 342°
2026-04-21 01:03 38.82239 -82.80570 5617 ft 189 kts 342°
2026-04-21 01:04 38.83512 -82.81015 5435 ft 189 kts 342°
2026-04-21 01:04 38.84786 -82.81459 5287 ft 188 kts 342°
2026-04-21 01:04 38.86050 -82.81901 5145 ft 188 kts 342°
2026-04-21 01:04 38.87312 -82.82341 5002 ft 187 kts 343°
2026-04-21 01:05 38.88566 -82.82778 4862 ft 187 kts 343°
2026-04-21 01:05 38.89829 -82.83219 4705 ft 188 kts 343°
2026-04-21 01:05 38.91090 -82.83660 4584 ft 187 kts 343°
2026-04-21 01:05 38.92356 -82.84102 4459 ft 186 kts 343°
2026-04-21 01:06 38.93601 -82.84538 4321 ft 187 kts 343°
2026-04-21 01:06 38.94864 -82.84979 4206 ft 186 kts 343°
2026-04-21 01:06 38.96114 -82.85416 4070 ft 186 kts 343°
2026-04-21 01:06 38.97368 -82.85856 3936 ft 187 kts 344°
2026-04-21 01:07 38.98616 -82.86292 3814 ft 186 kts 344°
2026-04-21 01:07 38.99887 -82.86737 3673 ft 187 kts 344°
2026-04-21 01:07 39.01144 -82.87178 3572 ft 186 kts 344°
2026-04-21 01:07 39.02394 -82.87617 3474 ft 188 kts 344°
2026-04-21 01:08 39.03664 -82.88063 3471 ft 189 kts 344°
2026-04-21 01:08 39.04927 -82.88506 3470 ft 189 kts 344°
2026-04-21 01:08 39.06217 -82.88958 3468 ft 189 kts 344°
2026-04-21 01:08 39.07494 -82.89406 3471 ft 190 kts 344°
2026-04-21 01:09 39.08763 -82.89851 3475 ft 190 kts 344°
2026-04-21 01:09 39.10046 -82.90301 3474 ft 190 kts 344°
2026-04-21 01:09 39.11316 -82.90748 3472 ft 190 kts 344°
2026-04-21 01:09 39.12595 -82.91197 3472 ft 189 kts 345°
2026-04-21 01:10 39.13840 -82.91632 3397 ft 185 kts 345°
2026-04-21 01:10 39.15106 -82.92078 3234 ft 187 kts 345°
2026-04-21 01:10 39.16375 -82.92529 3162 ft 191 kts 344°
2026-04-21 01:10 39.17662 -82.92982 3163 ft 192 kts 344°
2026-04-21 01:11 39.18964 -82.93440 3163 ft 192 kts 344°
2026-04-21 01:11 39.20251 -82.93893 3183 ft 192 kts 344°
2026-04-21 01:11 39.21546 -82.94350 3182 ft 192 kts 344°
2026-04-21 01:11 39.22847 -82.94808 3184 ft 192 kts 344°
2026-04-21 01:12 39.24142 -82.95264 3183 ft 193 kts 344°
2026-04-21 01:12 39.25435 -82.95721 3185 ft 193 kts 344°
2026-04-21 01:12 39.26735 -82.96179 3184 ft 193 kts 344°
2026-04-21 01:12 39.28040 -82.96584 3179 ft 193 kts 352°
2026-04-21 01:13 39.29380 -82.96706 3178 ft 193 kts 355°
2026-04-21 01:13 39.30722 -82.96791 3177 ft 193 kts 356°
2026-04-21 01:13 39.32081 -82.96929 3180 ft 193 kts 347°
2026-04-21 01:13 39.33364 -82.97416 3186 ft 193 kts 342°
2026-04-21 01:14 39.34639 -82.97949 3189 ft 193 kts 341°
2026-04-21 01:14 39.35871 -82.98630 3191 ft 193 kts 329°
2026-04-21 01:14 39.36988 -82.99588 3192 ft 194 kts 314°
2026-04-21 01:14 39.37608 -83.01104 3121 ft 187 kts 292°
2026-04-21 01:15 39.38083 -83.02650 2998 ft 182 kts 292°
2026-04-21 01:15 39.38632 -83.03969 2981 ft 144 kts 310°
2026-04-21 01:15 39.39262 -83.04700 2949 ft 103 kts 328°
2026-04-21 01:15 39.39877 -83.05051 2694 ft 90 kts 346°
2026-04-21 01:16 39.40458 -83.05147 2442 ft 86 kts 357°
2026-04-21 01:16 39.41063 -83.05106 2412 ft 86 kts 15°
2026-04-21 01:16 39.41622 -83.04894 2151 ft 85 kts 343°
2026-04-21 01:16 39.41945 -83.05533 1928 ft 94 kts 264°
2026-04-21 01:17 39.41457 -83.05984 1631 ft 103 kts 162°
2026-04-21 01:17 39.41132 -83.05290 1433 ft 97 kts 78°
2026-04-21 01:17 39.41574 -83.04725 1257 ft 98 kts 20°
2026-04-21 01:17 39.42115 -83.04421 1143 ft 80 kts 28°
2026-04-21 01:18 39.42582 -83.04002 985 ft 83 kts 39°
2026-04-21 01:18 39.43019 -83.03503 896 ft 85 kts 41°
2026-04-21 01:18 39.43453 -83.02997 771 ft 80 kts 42°
2026-04-21 01:18 39.43818 -83.02570 721 ft 51 kts 40°
2026-04-21 01:19 39.44002 -83.02355 716 ft 23 kts 42°
2026-04-21 01:19 39.44064 -83.02327 716 ft 9 kts 316°
2026-04-21 01:19 39.44099 -83.02375 717 ft 2 kts 312°
2026-04-21 01:19 39.44102 -83.02380 717 ft 0 kts 311°
2026-04-21 01:20 39.44114 -83.02404 717 ft 5 kts 276°
2026-04-21 01:21 39.44065 -83.02473 719 ft 12 kts 223°
2026-04-21 01:21 39.44012 -83.02537 720 ft 4 kts 223°
2026-04-21 01:21 39.44001 -83.02562 721 ft 2 kts 286°
2026-04-21 01:21 39.44020 -83.02591 721 ft 4 kts 313°
2026-04-21 01:22 39.44028 -83.02621 722 ft 1 kts 235°
2026-04-21 01:22 39.44023 -83.02628 722 ft 0 kts 217°